| time (UTC) | temp C | wind direction | speed KPH | gust KPH | rain 1hr cm | rain 24hr cm | rain mn cm | humidity % | barometer mb |
| 20260904193404 | 29 | 224 | 0.0 | 0.0 | 0.00 | 0.00 | 0.00 | 50 | 1018.7 |
| 20260904192905 | 29 | 224 | 0.0 | 1.6 | 0.00 | 0.00 | 0.00 | 50 | 1018.7 |
| 20260904192406 | 29 | 153 | 0.0 | 1.6 | 0.00 | 0.00 | 0.00 | 50 | 1018.4 |
| 20260904191406 | 29 | 277 | 0.0 | 1.6 | 0.00 | 0.00 | 0.00 | 52 | 1018.6 |
| 20260904190905 | 29 | 284 | 0.0 | 0.0 | 0.00 | 0.00 | 0.00 | 52 | 1018.9 |
| 20260904190406 | 29 | 284 | 0.0 | 0.0 | 0.00 | 0.00 | 0.00 | 52 | 1018.8 |
| 20260904185906 | 29 | 251 | 1.6 | 8.0 | 0.00 | 0.00 | 0.00 | 53 | 1018.4 |
| 20260904185406 | 29 | 241 | 1.6 | 11.3 | 0.00 | 0.00 | 0.00 | 53 | 1018.4 |
| 20260904184906 | 29 | 229 | 0.0 | 9.7 | 0.00 | 0.00 | 0.00 | 53 | 1018.6 |
| 20260904184405 | 29 | 240 | 0.0 | 0.0 | 0.00 | 0.00 | 0.00 | 53 | 1018.6 |
| 20260904183906 | 29 | 230 | 0.0 | 1.6 | 0.00 | 0.00 | 0.00 | 53 | 1018.5 |
| 20260904183408 | 29 | 194 | 0.0 | 3.2 | 0.00 | 0.00 | 0.00 | 53 | 1018.8 |
| 20260904182405 | 29 | 125 | 1.6 | 12.9 | 0.00 | 0.00 | 0.00 | 53 | 1018.9 |
| 20260904181905 | 29 | 96 | 1.6 | 8.0 | 0.00 | 0.00 | 0.00 | 53 | 1018.7 |
| 20260904180905 | 29 | 159 | 1.6 | 12.9 | 0.00 | 0.00 | 0.00 | 53 | 1019.2 |
| 20260904180406 | 29 | 110 | 0.0 | 0.0 | 0.00 | 0.00 | 0.00 | 53 | 1019.4 |
| 20260904175906 | 29 | 110 | 0.0 | 0.0 | 0.00 | 0.00 | 0.00 | 53 | 1019.5 |
| 20260904174906 | 30 | 135 | 1.6 | 8.0 | 0.00 | 0.00 | 0.00 | 52 | 1019.1 |
| 20260904174405 | 30 | 43 | 0.0 | 4.8 | 0.00 | 0.00 | 0.00 | 52 | 1018.9 |
| 20260904172905 | 30 | 72 | 1.6 | 12.9 | 0.00 | 0.00 | 0.00 | 50 | 1019.9 |
| 20260904171905 | 30 | 94 | 0.0 | 8.0 | 0.00 | 0.00 | 0.00 | 50 | 1020.0 |
| 20260904171406 | 30 | 47 | 1.6 | 14.5 | 0.00 | 0.00 | 0.00 | 50 | 1020.0 |
| 20260904170905 | 30 | 65 | 1.6 | 11.3 | 0.00 | 0.00 | 0.00 | 50 | 1019.7 |
| 20260904170405 | 30 | 69 | 0.0 | 11.3 | 0.00 | 0.00 | 0.00 | 50 | 1019.1 |
| 20260904165905 | 30 | 75 | 1.6 | 9.7 | 0.00 | 0.00 | 0.00 | 49 | 1018.9 |
| 20260904165405 | 30 | 87 | 0.0 | 1.6 | 0.00 | 0.00 | 0.00 | 49 | 1018.7 |
| 20260904164905 | 30 | 87 | 9.7 | 19.3 | 0.00 | 0.00 | 0.00 | 48 | 1018.8 |
| 20260904164405 | 30 | 19 | 3.2 | 9.7 | 0.00 | 0.00 | 0.00 | 48 | 1018.5 |
| 20260904163905 | 30 | 109 | 1.6 | 8.0 | 0.00 | 0.00 | 0.00 | 48 | 1018.2 |
| 20260904163406 | 30 | 19 | 3.2 | 9.7 | 0.00 | 0.00 | 0.00 | 48 | 1018.3 |
| 20260904162905 | 30 | 340 | 1.6 | 11.3 | 0.00 | 0.00 | 0.00 | 48 | 1018.5 |
| 20260904162405 | 31 | 120 | 4.8 | 12.9 | 0.00 | 0.00 | 0.00 | 47 | 1019.1 |
| 20260904161906 | 31 | 80 | 0.0 | 8.0 | 0.00 | 0.00 | 0.00 | 47 | 1020.0 |
| 20260904161405 | 31 | 74 | 0.0 | 4.8 | 0.00 | 0.00 | 0.00 | 47 | 1020.2 |
| 20260904160905 | 31 | 74 | 0.0 | 4.8 | 0.00 | 0.00 | 0.00 | 47 | 1020.1 |
| 20260904160405 | 31 | 74 | 0.0 | 1.6 | 0.00 | 0.00 | 0.00 | 46 | 1019.9 |
| 20260904155905 | 31 | 74 | 0.0 | 9.7 | 0.00 | 0.00 | 0.00 | 47 | 1019.9 |
| 20260904155405 | 31 | 80 | 3.2 | 11.3 | 0.00 | 0.00 | 0.00 | 46 | 1019.6 |
| 20260904154905 | 31 | 110 | 1.6 | 8.0 | 0.00 | 0.00 | 0.00 | 46 | 1019.6 |
| 20260904153905 | 31 | 228 | 0.0 | 0.0 | 0.00 | 0.00 | 0.00 | 47 | 1019.6 |
| 20260904153405 | 31 | 228 | 0.0 | 0.0 | 0.00 | 0.00 | 0.00 | 46 | 1019.6 |
| 20260904152905 | 31 | 228 | 0.0 | 0.0 | 0.00 | 0.00 | 0.00 | 47 | 1019.8 |
| 20260904152405 | 31 | 228 | 0.0 | 3.2 | 0.00 | 0.00 | 0.00 | 47 | 1019.6 |
| 20260904150905 | 31 | 145 | 0.0 | 8.0 | 0.00 | 0.00 | 0.00 | 47 | 1019.6 |
| 20260904145405 | 30 | 90 | 0.0 | 0.0 | 0.00 | 0.00 | 0.00 | 47 | 1019.8 |
| 20260904144405 | 30 | 90 | 0.0 | 1.6 | 0.00 | 0.00 | 0.00 | 49 | 1019.8 |
| 20260904143905 | 30 | 44 | 0.0 | 3.2 | 0.00 | 0.00 | 0.00 | 49 | 1019.6 |
| 20260904143405 | 30 | 294 | 0.0 | 4.8 | 0.00 | 0.00 | 0.00 | 50 | 1019.4 |
| 20260904142906 | 30 | 274 | 0.0 | 9.7 | 0.00 | 0.00 | 0.00 | 49 | 1019.3 |
| 20260904141905 | 31 | 168 | 0.0 | 3.2 | 0.00 | 0.00 | 0.00 | 46 | 1020.6 |
| 20260904141405 | 31 | 116 | 0.0 | 1.6 | 0.00 | 0.00 | 0.00 | 48 | 1021.1 |
| 20260904140905 | 30 | 116 | 0.0 | 4.8 | 0.00 | 0.00 | 0.00 | 48 | 1021.0 |
| 20260904140406 | 30 | 104 | 1.6 | 11.3 | 0.00 | 0.00 | 0.00 | 49 | 1021.0 |
| 20260904135905 | 30 | 40 | 1.6 | 9.7 | 0.00 | 0.00 | 0.00 | 49 | 1021.0 |
| 20260904135405 | 30 | 115 | 0.0 | 3.2 | 0.00 | 0.00 | 0.00 | 49 | 1021.0 |
| 20260904134905 | 30 | 114 | 1.6 | 12.9 | 0.00 | 0.00 | 0.00 | 49 | 1020.8 |
| 20260904134405 | 30 | 104 | 1.6 | 14.5 | 0.00 | 0.00 | 0.00 | 49 | 1020.8 |
| 20260904133905 | 30 | 113 | 1.6 | 14.5 | 0.00 | 0.00 | 0.00 | 50 | 1021.0 |
| 20260904133405 | 30 | 109 | 3.2 | 16.1 | 0.00 | 0.00 | 0.00 | 49 | 1021.0 |
| 20260904132905 | 30 | 112 | 4.8 | 19.3 | 0.00 | 0.00 | 0.00 | 50 | 1020.8 |
| 20260904132405 | 30 | 127 | 3.2 | 19.3 | 0.00 | 0.00 | 0.00 | 51 | 1020.9 |
| 20260904131905 | 30 | 149 | 0.0 | 8.0 | 0.00 | 0.00 | 0.00 | 52 | 1020.6 |
| 20260904130905 | 29 | 161 | 0.0 | 14.5 | 0.00 | 0.00 | 0.00 | 54 | 1020.6 |
| 20260904130406 | 29 | 150 | 3.2 | 9.7 | 0.00 | 0.00 | 0.00 | 53 | 1020.5 |
| 20260904125905 | 29 | 126 | 4.8 | 14.5 | 0.00 | 0.00 | 0.00 | 52 | 1020.6 |
| 20260904125405 | 29 | 128 | 1.6 | 9.7 | 0.00 | 0.00 | 0.00 | 52 | 1020.8 |
| 20260904124405 | 29 | 151 | 0.0 | 9.7 | 0.00 | 0.00 | 0.00 | 51 | 1020.7 |
| 20260904123905 | 29 | 151 | 1.6 | 9.7 | 0.00 | 0.00 | 0.00 | 51 | 1020.7 |
| 20260904123405 | 30 | 145 | 1.6 | 11.3 | 0.00 | 0.00 | 0.00 | 50 | 1020.8 |
| 20260904122905 | 30 | 100 | 3.2 | 14.5 | 0.00 | 0.00 | 0.00 | 50 | 1021.0 |
| 20260904122405 | 29 | 58 | 1.6 | 8.0 | 0.00 | 0.00 | 0.00 | 51 | 1020.9 |
| 20260904121905 | 29 | 85 | 3.2 | 14.5 | 0.00 | 0.00 | 0.00 | 51 | 1020.9 |
| 20260904121406 | 29 | 49 | 6.4 | 16.1 | 0.00 | 0.00 | 0.00 | 51 | 1021.1 |
| 20260904120405 | 28 | 266 | 0.0 | 8.0 | 0.00 | 0.00 | 0.00 | 53 | 1020.5 |
| 20260904115405 | 27 | 195 | 0.0 | 0.0 | 0.00 | 0.00 | 0.00 | 56 | 1020.7 |
| 20260904114905 | 26 | 195 | 0.0 | 0.0 | 0.00 | 0.00 | 0.00 | 57 | 1020.8 |
| 20260904114405 | 26 | 195 | 0.0 | 0.0 | 0.00 | 0.00 | 0.00 | 57 | 1020.7 |
| 20260904113905 | 26 | 285 | 0.0 | 1.6 | 0.00 | 0.00 | 0.00 | 58 | 1021.0 |
| 20260904113404 | 26 | 225 | 6.4 | 11.3 | 0.00 | 0.00 | 0.00 | 59 | 1020.6 |
| 20260904112905 | 26 | 223 | 4.8 | 11.3 | 0.00 | 0.00 | 0.00 | 59 | 1020.4 |
| 20260904112405 | 26 | 206 | 4.8 | 16.1 | 0.00 | 0.00 | 0.00 | 59 | 1020.5 |
| 20260904111905 | 26 | 213 | 11.3 | 19.3 | 0.00 | 0.00 | 0.00 | 58 | 1020.4 |
| 20260904111405 | 26 | 219 | 9.7 | 14.5 | 0.00 | 0.00 | 0.00 | 58 | 1020.7 |
| 20260904110405 | 26 | 211 | 3.2 | 11.3 | 0.00 | 0.00 | 0.00 | 58 | 1021.4 |
| 20260904105905 | 26 | 231 | 0.0 | 4.8 | 0.00 | 0.00 | 0.00 | 58 | 1021.2 |
| 20260904105405 | 25 | 92 | 1.6 | 8.0 | 0.00 | 0.00 | 0.00 | 58 | 1021.9 |
| 20260904104905 | 25 | 355 | 0.0 | 0.0 | 0.00 | 0.00 | 0.00 | 58 | 1021.6 |
| 20260904104405 | 25 | 28 | 1.6 | 9.7 | 0.00 | 0.00 | 0.00 | 59 | 1021.7 |
| 20260904103905 | 25 | 65 | 0.0 | 3.2 | 0.00 | 0.00 | 0.00 | 59 | 1021.6 |
| 20260904103404 | 25 | 23 | 1.6 | 19.3 | 0.00 | 0.00 | 0.00 | 59 | 1021.7 |
| 20260904102905 | 25 | 10 | 11.3 | 19.3 | 0.00 | 0.00 | 0.00 | 58 | 1022.0 |
| 20260904102405 | 25 | 27 | 16.1 | 32.2 | 0.00 | 0.00 | 0.00 | 59 | 1022.0 |
| 20260904101405 | 24 | 268 | 0.0 | 9.7 | 0.00 | 0.00 | 0.00 | 58 | 1020.6 |
| 20260904100405 | 24 | 296 | 4.8 | 11.3 | 0.00 | 0.00 | 0.00 | 59 | 1021.0 |
| 20260904095905 | 24 | 225 | 0.0 | 8.0 | 0.00 | 0.00 | 0.00 | 59 | 1020.9 |
| 20260904095405 | 24 | 228 | 3.2 | 11.3 | 0.00 | 0.00 | 0.00 | 59 | 1020.9 |
| 20260904094905 | 24 | 242 | 4.8 | 14.5 | 0.00 | 0.00 | 0.00 | 58 | 1020.9 |
| 20260904094405 | 24 | 194 | 9.7 | 12.9 | 0.00 | 0.00 | 0.00 | 58 | 1021.0 |
| 20260904093905 | 24 | 50 | 0.0 | 1.6 | 0.00 | 0.00 | 0.00 | 59 | 1021.7 |
| 20260904093405 | 24 | 222 | 0.0 | 1.6 | 0.00 | 0.00 | 0.00 | 58 | 1021.6 |
| 20260904092905 | 24 | 222 | 0.0 | 0.0 | 0.00 | 0.00 | 0.00 | 58 | 1021.5 |
| 20260904092405 | 24 | 222 | 0.0 | 0.0 | 0.00 | 0.00 | 0.00 | 58 | 1021.5 |
| 20260904091905 | 24 | 222 | 0.0 | 0.0 | 0.00 | 0.00 | 0.00 | 58 | 1021.5 |
| 20260904091405 | 23 | 222 | 0.0 | 0.0 | 0.00 | 0.00 | 0.00 | 58 | 1021.3 |
| 20260904090905 | 23 | 222 | 0.0 | 0.0 | 0.00 | 0.00 | 0.00 | 59 | 1021.3 |
| 20260904085905 | 23 | 225 | 3.2 | 11.3 | 0.00 | 0.00 | 0.00 | 59 | 1021.1 |
| 20260904084905 | 23 | 224 | 4.8 | 9.7 | 0.00 | 0.00 | 0.00 | 58 | 1021.1 |
| 20260904084404 | 23 | 229 | 0.0 | 1.6 | 0.00 | 0.00 | 0.00 | 59 | 1021.2 |
| 20260904083904 | 23 | 229 | 0.0 | 0.0 | 0.00 | 0.00 | 0.00 | 59 | 1021.3 |
| 20260904082405 | 23 | 201 | 8.0 | 11.3 | 0.00 | 0.00 | 0.00 | 58 | 1021.2 |
| 20260904081904 | 23 | 218 | 0.0 | 0.0 | 0.00 | 0.00 | 0.00 | 59 | 1021.3 |
| 20260904081405 | 23 | 240 | 0.0 | 1.6 | 0.00 | 0.00 | 0.00 | 59 | 1021.3 |
| 20260904080905 | 23 | 9 | 0.0 | 1.6 | 0.00 | 0.00 | 0.00 | 58 | 1021.4 |
| 20260904080405 | 23 | 9 | 0.0 | 1.6 | 0.00 | 0.00 | 0.00 | 59 | 1021.3 |
| 20260904075405 | 22 | 9 | 0.0 | 0.0 | 0.00 | 0.00 | 0.00 | 58 | 1021.3 |
| 20260904074904 | 22 | 9 | 0.0 | 0.0 | 0.00 | 0.00 | 0.00 | 58 | 1021.3 |
| 20260904074405 | 23 | 9 | 1.6 | 11.3 | 0.00 | 0.00 | 0.00 | 57 | 1021.3 |
| 20260904073905 | 23 | 346 | 8.0 | 11.3 | 0.00 | 0.00 | 0.00 | 56 | 1021.2 |
| 20260904073405 | 23 | 288 | 1.6 | 4.8 | 0.00 | 0.00 | 0.00 | 56 | 1020.9 |
| 20260904071905 | 23 | 5 | 0.0 | 1.6 | 0.00 | 0.00 | 0.00 | 58 | 1020.8 |
| 20260904071405 | 23 | 5 | 0.0 | 1.6 | 0.00 | 0.00 | 0.00 | 58 | 1020.8 |
| 20260904070904 | 23 | 5 | 0.0 | 0.0 | 0.00 | 0.00 | 0.00 | 57 | 1021.0 |
| 20260904070404 | 23 | 5 | 0.0 | 1.6 | 0.00 | 0.00 | 0.00 | 56 | 1020.9 |
| 20260904065405 | 23 | 5 | 0.0 | 0.0 | 0.00 | 0.00 | 0.00 | 55 | 1020.2 |
| 20260904064904 | 23 | 5 | 0.0 | 0.0 | 0.00 | 0.00 | 0.00 | 55 | 1020.1 |
| 20260904064405 | 23 | 5 | 0.0 | 0.0 | 0.00 | 0.00 | 0.00 | 55 | 1020.2 |
| 20260904063905 | 23 | 5 | 0.0 | 0.0 | 0.00 | 0.00 | 0.00 | 55 | 1019.9 |
| 20260904061905 | 23 | 5 | 0.0 | 0.0 | 0.00 | 0.00 | 0.00 | 55 | 1019.8 |
| 20260904061405 | 23 | 5 | 0.0 | 0.0 | 0.00 | 0.00 | 0.00 | 54 | 1019.6 |
| 20260904060905 | 23 | 5 | 0.0 | 0.0 | 0.00 | 0.00 | 0.00 | 54 | 1019.6 |
| 20260904060405 | 23 | 5 | 0.0 | 0.0 | 0.00 | 0.00 | 0.00 | 54 | 1019.4 |
| 20260904055404 | 23 | 5 | 0.0 | 0.0 | 0.00 | 0.00 | 0.00 | 55 | 1019.2 |
| 20260904054904 | 23 | 5 | 0.0 | 0.0 | 0.00 | 0.00 | 0.00 | 55 | 1019.0 |
| 20260904054405 | 23 | 5 | 0.0 | 0.0 | 0.00 | 0.00 | 0.00 | 55 | 1019.2 |
| 20260904053904 | 23 | 5 | 0.0 | 1.6 | 0.00 | 0.00 | 0.00 | 53 | 1019.1 |
| 20260904053405 | 24 | 5 | 0.0 | 1.6 | 0.00 | 0.00 | 0.00 | 53 | 1019.0 |
| 20260904052905 | 24 | 11 | 0.0 | 1.6 | 0.00 | 0.00 | 0.00 | 53 | 1018.8 |
| 20260904052404 | 24 | 263 | 0.0 | 1.6 | 0.00 | 0.00 | 0.00 | 53 | 1018.8 |
| 20260904051905 | 24 | 265 | 0.0 | 1.6 | 0.00 | 0.00 | 0.00 | 54 | 1018.8 |
| 20260904051404 | 24 | 248 | 0.0 | 1.6 | 0.00 | 0.00 | 0.00 | 54 | 1018.7 |
| 20260904050404 | 23 | 251 | 3.2 | 8.0 | 0.00 | 0.00 | 0.00 | 54 | 1018.7 |
| 20260904045905 | 23 | 245 | 0.0 | 1.6 | 0.00 | 0.00 | 0.00 | 54 | 1018.9 |
| 20260904045405 | 23 | 309 | 0.0 | 0.0 | 0.00 | 0.00 | 0.00 | 54 | 1019.0 |
| 20260904044905 | 23 | 247 | 0.0 | 4.8 | 0.00 | 0.00 | 0.00 | 54 | 1019.0 |
| 20260904043905 | 23 | 240 | 1.6 | 12.9 | 0.00 | 0.00 | 0.00 | 53 | 1019.0 |
| 20260904042905 | 24 | 254 | 0.0 | 8.0 | 0.00 | 0.00 | 0.00 | 53 | 1019.2 |
| 20260904042405 | 24 | 236 | 6.4 | 9.7 | 0.00 | 0.00 | 0.00 | 55 | 1019.0 |
| 20260904041904 | 24 | 37 | 0.0 | 0.0 | 0.00 | 0.00 | 0.00 | 55 | 1019.5 |
| 20260904041405 | 25 | 37 | 0.0 | 0.0 | 0.00 | 0.00 | 0.00 | 55 | 1019.3 |
| 20260904040905 | 24 | 37 | 0.0 | 0.0 | 0.00 | 0.00 | 0.00 | 56 | 1019.4 |
| 20260904040404 | 24 | 37 | 0.0 | 1.6 | 0.00 | 0.00 | 0.00 | 56 | 1019.4 |
| 20260904035905 | 24 | 37 | 0.0 | 0.0 | 0.00 | 0.00 | 0.00 | 56 | 1019.5 |
| 20260904034905 | 24 | 37 | 0.0 | 3.2 | 0.00 | 0.00 | 0.00 | 56 | 1019.9 |
| 20260904034404 | 23 | 249 | 0.0 | 0.0 | 0.00 | 0.00 | 0.00 | 55 | 1019.8 |
| 20260904033905 | 23 | 249 | 0.0 | 1.6 | 0.00 | 0.00 | 0.00 | 56 | 1019.7 |
| 20260904032905 | 23 | 217 | 0.0 | 0.0 | 0.00 | 0.00 | 0.00 | 56 | 1019.7 |
| 20260904032405 | 23 | 217 | 0.0 | 0.0 | 0.00 | 0.00 | 0.00 | 55 | 1019.8 |
| 20260904031906 | 23 | 217 | 0.0 | 3.2 | 0.00 | 0.00 | 0.00 | 54 | 1019.8 |
| 20260904031404 | 24 | 61 | 8.0 | 19.3 | 0.00 | 0.00 | 0.00 | 54 | 1020.1 |
| 20260904030405 | 25 | 329 | 3.2 | 11.3 | 0.00 | 0.00 | 0.00 | 50 | 1019.0 |
| 20260904024905 | 25 | 289 | 0.0 | 4.8 | 0.00 | 0.00 | 0.00 | 47 | 1018.7 |
| 20260904024404 | 25 | 301 | 1.6 | 8.0 | 0.00 | 0.00 | 0.00 | 47 | 1018.7 |
| 20260904023904 | 25 | 275 | 1.6 | 8.0 | 0.00 | 0.00 | 0.00 | 48 | 1018.7 |
| 20260904023404 | 25 | 287 | 1.6 | 9.7 | 0.00 | 0.00 | 0.00 | 48 | 1018.7 |
| 20260904022905 | 25 | 346 | 1.6 | 4.8 | 0.00 | 0.00 | 0.00 | 48 | 1018.8 |
| 20260904021905 | 25 | 346 | 0.0 | 0.0 | 0.00 | 0.00 | 0.00 | 48 | 1018.9 |
| 20260904021404 | 25 | 346 | 0.0 | 0.0 | 0.00 | 0.00 | 0.00 | 47 | 1018.9 |
| 20260904020905 | 26 | 346 | 0.0 | 8.0 | 0.00 | 0.00 | 0.00 | 47 | 1019.0 |
| 20260904020405 | 26 | 346 | 1.6 | 8.0 | 0.00 | 0.00 | 0.00 | 46 | 1019.1 |
| 20260904015405 | 26 | 346 | 0.0 | 0.0 | 0.00 | 0.00 | 0.00 | 45 | 1019.3 |
| 20260904014905 | 26 | 346 | 0.0 | 0.0 | 0.00 | 0.00 | 0.00 | 45 | 1019.3 |
| 20260904014405 | 26 | 346 | 0.0 | 0.0 | 0.00 | 0.00 | 0.00 | 44 | 1019.3 |
| 20260904013905 | 26 | 346 | 0.0 | 0.0 | 0.00 | 0.00 | 0.00 | 44 | 1019.3 |
| 20260904013405 | 26 | 346 | 0.0 | 1.6 | 0.00 | 0.00 | 0.00 | 43 | 1019.4 |
| 20260904012905 | 26 | 327 | 1.6 | 9.7 | 0.00 | 0.00 | 0.00 | 42 | 1019.3 |
| 20260904012405 | 26 | 304 | 6.4 | 9.7 | 0.00 | 0.00 | 0.00 | 43 | 1019.2 |
| 20260904011905 | 26 | 296 | 0.0 | 8.0 | 0.00 | 0.00 | 0.00 | 43 | 1019.2 |
| 20260904010904 | 26 | 17 | 0.0 | 1.6 | 0.00 | 0.00 | 0.00 | 45 | 1019.3 |
| 20260904010405 | 27 | 19 | 0.0 | 0.0 | 0.00 | 0.00 | 0.00 | 48 | 1019.5 |
| 20260904005905 | 27 | 19 | 0.0 | 0.0 | 0.00 | 0.00 | 0.00 | 51 | 1019.5 |
| 20260904005405 | 27 | 19 | 0.0 | 0.0 | 0.00 | 0.00 | 0.00 | 52 | 1019.4 |
| 20260904004905 | 27 | 19 | 0.0 | 0.0 | 0.00 | 0.00 | 0.00 | 53 | 1019.4 |
| 20260904004405 | 27 | 19 | 0.0 | 0.0 | 0.00 | 0.00 | 0.00 | 54 | 1019.4 |
| 20260904003905 | 27 | 19 | 0.0 | 0.0 | 0.00 | 0.00 | 0.00 | 54 | 1019.4 |
| 20260904003405 | 27 | 19 | 0.0 | 0.0 | 0.00 | 0.00 | 0.00 | 54 | 1019.4 |
| 20260904002905 | 27 | 19 | 0.0 | 0.0 | 0.00 | 0.00 | 0.00 | 54 | 1019.4 |
| 20260904002404 | 27 | 19 | 0.0 | 0.0 | 0.00 | 0.00 | 0.00 | 53 | 1019.4 |
| 20260904001904 | 27 | 19 | 0.0 | 0.0 | 0.00 | 0.00 | 0.00 | 53 | 1019.4 |
| 20260904001404 | 27 | 19 | 0.0 | 0.0 | 0.00 | 0.00 | 0.00 | 52 | 1019.5 |
| 20260904000904 | 27 | 19 | 0.0 | 0.0 | 0.00 | 0.00 | 0.00 | 52 | 1019.6 |
| 20260904000404 | 27 | 19 | 0.0 | 0.0 | 0.00 | 0.00 | 0.00 | 51 | 1019.6 |
| 20260903235905 | 27 | 19 | 0.0 | 3.2 | 0.00 | 0.00 | 0.00 | 50 | 1019.7 |
| 20260903235405 | 27 | 19 | 0.0 | 0.0 | 0.00 | 0.00 | 0.00 | 49 | 1019.7 |
| 20260903234904 | 27 | 19 | 0.0 | 4.8 | 0.00 | 0.00 | 0.00 | 48 | 1019.7 |
| 20260903234405 | 27 | 19 | 0.0 | 0.0 | 0.00 | 0.00 | 0.00 | 46 | 1019.7 |
| 20260903233905 | 27 | 19 | 0.0 | 0.0 | 0.00 | 0.00 | 0.00 | 44 | 1019.7 |
| 20260903233405 | 27 | 19 | 0.0 | 0.0 | 0.00 | 0.00 | 0.00 | 44 | 1019.7 |
| 20260903232904 | 27 | 19 | 0.0 | 0.0 | 0.00 | 0.00 | 0.00 | 43 | 1019.6 |
| 20260903232404 | 27 | 19 | 0.0 | 0.0 | 0.00 | 0.00 | 0.00 | 41 | 1019.5 |
| 20260903231905 | 27 | 19 | 0.0 | 4.8 | 0.00 | 0.00 | 0.00 | 40 | 1019.6 |
| 20260903230905 | 30 | 38 | 9.7 | 16.1 | 0.00 | 0.00 | 0.00 | 36 | 1019.5 |
| 20260903230404 | 30 | 186 | 0.0 | 0.0 | 0.00 | 0.00 | 0.00 | 34 | 1019.2 |
| 20260903225405 | 31 | 186 | 0.0 | 0.0 | 0.00 | 0.00 | 0.00 | 34 | 1019.1 |
| 20260903224405 | 31 | 186 | 0.0 | 0.0 | 0.00 | 0.00 | 0.00 | 34 | 1019.1 |
| 20260903223905 | 31 | 186 | 0.0 | 0.0 | 0.00 | 0.00 | 0.00 | 32 | 1019.0 |
| 20260903223405 | 32 | 186 | 0.0 | 0.0 | 0.00 | 0.00 | 0.00 | 32 | 1019.0 |
| 20260903222905 | 32 | 186 | 0.0 | 0.0 | 0.00 | 0.00 | 0.00 | 32 | 1019.0 |
| 20260903222404 | 32 | 186 | 0.0 | 0.0 | 0.00 | 0.00 | 0.00 | 30 | 1019.0 |
| 20260903221905 | 32 | 186 | 0.0 | 0.0 | 0.00 | 0.00 | 0.00 | 29 | 1019.0 |
| 20260903221404 | 32 | 186 | 0.0 | 0.0 | 0.00 | 0.00 | 0.00 | 29 | 1019.0 |
| 20260903220904 | 32 | 186 | 0.0 | 0.0 | 0.00 | 0.00 | 0.00 | 29 | 1019.0 |
| 20260903220404 | 32 | 186 | 3.2 | 4.8 | 0.00 | 0.00 | 0.00 | 29 | 1019.0 |
| 20260903215904 | 33 | 186 | 1.6 | 3.2 | 0.00 | 0.00 | 0.00 | 29 | 1019.0 |
| 20260903215404 | 33 | 186 | 0.0 | 0.0 | 0.00 | 0.00 | 0.00 | 28 | 1019.0 |
| 20260903214904 | 33 | 186 | 0.0 | 0.0 | 0.00 | 0.00 | 0.00 | 28 | 1018.9 |
| 20260903214404 | 33 | 186 | 0.0 | 1.6 | 0.00 | 0.00 | 0.00 | 28 | 1018.9 |
| 20260903213405 | 33 | 186 | 0.0 | 0.0 | 0.00 | 0.00 | 0.00 | 28 | 1019.0 |
| 20260903212904 | 34 | 186 | 0.0 | 0.0 | 0.00 | 0.00 | 0.00 | 27 | 1019.0 |
| 20260903212407 | 34 | 186 | 0.0 | 1.6 | 0.00 | 0.00 | 0.00 | 26 | 1019.1 |
| 20260903211904 | 34 | 186 | 0.0 | 0.0 | 0.00 | 0.00 | 0.00 | 26 | 1019.0 |
| 20260903211405 | 34 | 186 | 1.6 | 4.8 | 0.00 | 0.00 | 0.00 | 26 | 1019.2 |
| 20260903210906 | 34 | 186 | 3.2 | 4.8 | 0.00 | 0.00 | 0.00 | 26 | 1019.1 |
| 20260903210405 | 34 | 186 | 1.6 | 4.8 | 0.00 | 0.00 | 0.00 | 26 | 1019.0 |
| 20260903205404 | 34 | 186 | 1.6 | 8.0 | 0.00 | 0.00 | 0.00 | 25 | 1019.0 |
| 20260903204904 | 34 | 186 | 4.8 | 9.7 | 0.00 | 0.00 | 0.00 | 26 | 1019.0 |
| 20260903203904 | 34 | 186 | 1.6 | 3.2 | 0.00 | 0.00 | 0.00 | 27 | 1019.0 |
| 20260903203405 | 34 | 186 | 0.0 | 4.8 | 0.00 | 0.00 | 0.00 | 27 | 1019.0 |
| 20260903202904 | 35 | 186 | 3.2 | 8.0 | 0.00 | 0.00 | 0.00 | 27 | 1018.9 |
| 20260903202405 | 35 | 186 | 3.2 | 4.8 | 0.00 | 0.00 | 0.00 | 26 | 1018.9 |
| 20260903201905 | 35 | 186 | 0.0 | 0.0 | 0.00 | 0.00 | 0.00 | 26 | 1018.8 |
| 20260903201404 | 35 | 186 | 0.0 | 0.0 | 0.00 | 0.00 | 0.00 | 25 | 1018.7 |
| 20260903200905 | 35 | 186 | 0.0 | 0.0 | 0.00 | 0.00 | 0.00 | 25 | 1018.7 |
| 20260903195904 | 36 | 186 | 3.2 | 9.7 | 0.00 | 0.00 | 0.00 | 24 | 1018.5 |
| 20260903195404 | 36 | 212 | 1.6 | 9.7 | 0.00 | 0.00 | 0.00 | 24 | 1018.4 |
| 20260903194904 | 36 | 269 | 3.2 | 8.0 | 0.00 | 0.00 | 0.00 | 24 | 1018.4 |
| 20260903193904 | 36 | 241 | 0.0 | 4.8 | 0.00 | 0.00 | 0.00 | 24 | 1018.2 |